owner,sensor,date,latitude,longitude,vertical_datum,sea_water_temperature,qcFlag 
TABS,ioos:station:wmo:42046:1,2002-01-23T00:30:00Z,27.8903,-94.0367,-2.0,21.38,11111222 
TABS,ioos:station:wmo:42046:1,2002-01-23T01:00:00Z,27.8903,-94.0367,-2.0,21.29,11111222 
TABS,ioos:station:wmo:42046:1,2002-01-23T01:30:00Z,27.8903,-94.0367,-2.0,21.23,11111222 
TABS,ioos:station:wmo:42046:1,2002-01-23T02:00:00Z,27.8903,-94.0367,-2.0,21.19,11111222 
TABS,ioos:station:wmo:42046:1,2002-01-23T02:30:00Z,27.8903,-94.0367,-2.0,21.13,11111222 
TABS,ioos:station:wmo:42046:1,2002-01-23T03:30:00Z,27.8903,-94.0367,-2.0,21.12,11111222 
TABS,ioos:station:wmo:42046:1,2002-01-23T04:00:00Z,27.8903,-94.0367,-2.0,21.14,11111222 
TABS,ioos:station:wmo:42046:1,2002-01-23T04:30:00Z,27.8903,-94.0367,-2.0,21.16,11111222 
TABS,ioos:station:wmo:42046:1,2002-01-23T05:00:00Z,27.8903,-94.0367,-2.0,21.18,11111222 
TABS,ioos:station:wmo:42046:1,2002-01-23T05:30:00Z,27.8903,-94.0367,-2.0,21.2,11111222 
TABS,ioos:station:wmo:42046:1,2002-01-23T06:00:00Z,27.8903,-94.0367,-2.0,21.22,11111222 
TABS,ioos:station:wmo:42046:1,2002-01-23T06:30:00Z,27.8903,-94.0367,-2.0,21.23,11111222 
TABS,ioos:station:wmo:42046:1,2002-01-23T07:00:00Z,27.8903,-94.0367,-2.0,21.24,11111222 
TABS,ioos:station:wmo:42046:1,2002-01-23T07:30:00Z,27.8903,-94.0367,-2.0,21.24,11111222 
TABS,ioos:station:wmo:42046:1,2002-01-23T08:00:00Z,27.8903,-94.0367,-2.0,21.24,11111222 
TABS,ioos:station:wmo:42046:1,2002-01-23T08:30:00Z,27.8903,-94.0367,-2.0,21.23,11111222 
TABS,ioos:station:wmo:42046:1,2002-01-23T09:00:00Z,27.8903,-94.0367,-2.0,21.24,11111222 
TABS,ioos:station:wmo:42046:1,2002-01-23T09:30:00Z,27.8903,-94.0367,-2.0,21.25,11111222 
TABS,ioos:station:wmo:42046:1,2002-01-23T10:00:00Z,27.8903,-94.0367,-2.0,21.24,11111222 
TABS,ioos:station:wmo:42046:1,2002-01-23T10:30:00Z,27.8903,-94.0367,-2.0,21.24,11111222 
TABS,ioos:station:wmo:42046:1,2002-01-23T11:00:00Z,27.8903,-94.0367,-2.0,21.23,11111222 
TABS,ioos:station:wmo:42046:1,2002-01-23T11:30:00Z,27.8903,-94.0367,-2.0,21.23,11111222 
TABS,ioos:station:wmo:42046:1,2002-01-23T12:00:00Z,27.8903,-94.0367,-2.0,21.23,11111222 
TABS,ioos:station:wmo:42046:1,2002-01-23T12:30:00Z,27.8903,-94.0367,-2.0,21.21,11111222 
TABS,ioos:station:wmo:42046:1,2002-01-23T13:00:00Z,27.8903,-94.0367,-2.0,21.21,11111222 
TABS,ioos:station:wmo:42046:1,2002-01-23T13:30:00Z,27.8903,-94.0367,-2.0,21.2,11111222 
TABS,ioos:station:wmo:42046:1,2002-01-23T14:00:00Z,27.8903,-94.0367,-2.0,21.21,11111222 
TABS,ioos:station:wmo:42046:1,2002-01-23T14:30:00Z,27.8903,-94.0367,-2.0,21.28,11111222 
TABS,ioos:station:wmo:42046:1,2002-01-23T15:00:00Z,27.8903,-94.0367,-2.0,21.3,11111222 
TABS,ioos:station:wmo:42046:1,2002-01-23T15:30:00Z,27.8903,-94.0367,-2.0,21.41,11111222 
TABS,ioos:station:wmo:42046:1,2002-01-23T16:00:00Z,27.8903,-94.0367,-2.0,21.45,11111222 
TABS,ioos:station:wmo:42046:1,2002-01-23T16:30:00Z,27.8903,-94.0367,-2.0,21.43,11111222 
TABS,ioos:station:wmo:42046:1,2002-01-23T17:00:00Z,27.8903,-94.0367,-2.0,21.42,11111222 
TABS,ioos:station:wmo:42046:1,2002-01-23T17:30:00Z,27.8903,-94.0367,-2.0,21.46,11111222 
TABS,ioos:station:wmo:42046:1,2002-01-23T18:00:00Z,27.8903,-94.0367,-2.0,21.52,11111222 
TABS,ioos:station:wmo:42046:1,2002-01-23T18:30:00Z,27.8903,-94.0367,-2.0,21.6,11111222 
TABS,ioos:station:wmo:42046:1,2002-01-23T19:00:00Z,27.8903,-94.0367,-2.0,21.69,11111222 
TABS,ioos:station:wmo:42046:1,2002-01-23T19:30:00Z,27.8903,-94.0367,-2.0,21.76,11111222 
TABS,ioos:station:wmo:42046:1,2002-01-23T20:00:00Z,27.8903,-94.0367,-2.0,21.8,11111222 
TABS,ioos:station:wmo:42046:1,2002-01-23T20:30:00Z,27.8903,-94.0367,-2.0,21.78,11111222 
TABS,ioos:station:wmo:42046:1,2002-01-23T21:30:00Z,27.8903,-94.0367,-2.0,21.7,11111222 
TABS,ioos:station:wmo:42046:1,2002-01-23T22:00:00Z,27.8903,-94.0367,-2.0,21.76,11111222 
TABS,ioos:station:wmo:42046:1,2002-01-23T22:30:00Z,27.8903,-94.0367,-2.0,21.71,11111222 
TABS,ioos:station:wmo:42046:1,2002-01-23T23:00:00Z,27.8903,-94.0367,-2.0,21.64,11111222 
TABS,ioos:station:wmo:42046:1,2002-01-23T23:30:00Z,27.8903,-94.0367,-2.0,21.6,11111222 
TABS,ioos:station:wmo:42046:1,2002-01-24T00:00:00Z,27.8903,-94.0367,-2.0,21.51,11111222 
TABS,ioos:station:wmo:42046:1,2002-01-24T00:30:00Z,27.8903,-94.0367,-2.0,21.43,11111222 
TABS,ioos:station:wmo:42046:1,2002-01-24T01:00:00Z,27.8903,-94.0367,-2.0,21.41,11111222 
TABS,ioos:station:wmo:42046:1,2002-01-24T01:30:00Z,27.8903,-94.0367,-2.0,21.36,11111222 
TABS,ioos:station:wmo:42046:1,2002-01-24T02:00:00Z,27.8903,-94.0367,-2.0,21.28,11111222 
TABS,ioos:station:wmo:42046:1,2002-01-24T02:30:00Z,27.8903,-94.0367,-2.0,21.21,11111222 
TABS,ioos:station:wmo:42046:1,2002-01-24T03:00:00Z,27.8903,-94.0367,-2.0,21.17,11111222 
TABS,ioos:station:wmo:42046:1,2002-01-24T03:30:00Z,27.8903,-94.0367,-2.0,21.15,11111222 
TABS,ioos:station:wmo:42046:1,2002-01-24T04:00:00Z,27.8903,-94.0367,-2.0,21.13,11111222 
TABS,ioos:station:wmo:42046:1,2002-01-24T04:30:00Z,27.8903,-94.0367,-2.0,21.11,11111222 
TABS,ioos:station:wmo:42046:1,2002-01-24T05:00:00Z,27.8903,-94.0367,-2.0,21.09,11111222 
TABS,ioos:station:wmo:42046:1,2002-01-24T05:30:00Z,27.8903,-94.0367,-2.0,21.05,11111222 
TABS,ioos:station:wmo:42046:1,2002-01-24T06:00:00Z,27.8903,-94.0367,-2.0,21.05,11111222 
TABS,ioos:station:wmo:42046:1,2002-01-24T06:30:00Z,27.8903,-94.0367,-2.0,21.03,11111222 
TABS,ioos:station:wmo:42046:1,2002-01-24T07:00:00Z,27.8903,-94.0367,-2.0,21.01,11111222 
TABS,ioos:station:wmo:42046:1,2002-01-24T07:30:00Z,27.8903,-94.0367,-2.0,20.96,11111222 
TABS,ioos:station:wmo:42046:1,2002-01-24T08:00:00Z,27.8903,-94.0367,-2.0,20.95,11111222 
TABS,ioos:station:wmo:42046:1,2002-01-24T08:30:00Z,27.8903,-94.0367,-2.0,20.93,11111222 
TABS,ioos:station:wmo:42046:1,2002-01-24T09:00:00Z,27.8903,-94.0367,-2.0,20.93,11111222 
TABS,ioos:station:wmo:42046:1,2002-01-24T09:30:00Z,27.8903,-94.0367,-2.0,20.93,11111222 
TABS,ioos:station:wmo:42046:1,2002-01-24T10:00:00Z,27.8903,-94.0367,-2.0,20.94,11111222 
TABS,ioos:station:wmo:42046:1,2002-01-24T10:30:00Z,27.8903,-94.0367,-2.0,20.97,11111222 
TABS,ioos:station:wmo:42046:1,2002-01-24T11:00:00Z,27.8903,-94.0367,-2.0,20.98,11111222 
TABS,ioos:station:wmo:42046:1,2002-01-24T11:30:00Z,27.8903,-94.0367,-2.0,21.0,11111222 
TABS,ioos:station:wmo:42046:1,2002-01-24T12:30:00Z,27.8903,-94.0367,-2.0,21.05,11111222 
TABS,ioos:station:wmo:42046:1,2002-01-24T13:00:00Z,27.8903,-94.0367,-2.0,21.06,11111222 
TABS,ioos:station:wmo:42046:1,2002-01-24T13:30:00Z,27.8903,-94.0367,-2.0,21.07,11111222 
TABS,ioos:station:wmo:42046:1,2002-01-24T14:00:00Z,27.8903,-94.0367,-2.0,21.08,11111222 
TABS,ioos:station:wmo:42046:1,2002-01-24T14:30:00Z,27.8903,-94.0367,-2.0,21.08,11111222 
TABS,ioos:station:wmo:42046:1,2002-01-24T15:00:00Z,27.8903,-94.0367,-2.0,21.09,11111222 
TABS,ioos:station:wmo:42046:1,2002-01-24T15:30:00Z,27.8903,-94.0367,-2.0,21.11,11111222 
TABS,ioos:station:wmo:42046:1,2002-01-24T16:00:00Z,27.8903,-94.0367,-2.0,21.13,11111222 
TABS,ioos:station:wmo:42046:1,2002-01-24T16:30:00Z,27.8903,-94.0367,-2.0,21.14,11111222 
TABS,ioos:station:wmo:42046:1,2002-01-24T17:00:00Z,27.8903,-94.0367,-2.0,21.17,11111222 
TABS,ioos:station:wmo:42046:1,2002-01-24T17:30:00Z,27.8903,-94.0367,-2.0,21.18,11111222 
TABS,ioos:station:wmo:42046:1,2002-01-24T18:00:00Z,27.8903,-94.0367,-2.0,21.2,11111222 
TABS,ioos:station:wmo:42046:1,2002-01-24T18:30:00Z,27.8903,-94.0367,-2.0,21.22,11111222 
TABS,ioos:station:wmo:42046:1,2002-01-24T19:00:00Z,27.8903,-94.0367,-2.0,21.23,11111222 
TABS,ioos:station:wmo:42046:1,2002-01-24T19:30:00Z,27.8903,-94.0367,-2.0,21.25,11111222 
TABS,ioos:station:wmo:42046:1,2002-01-24T20:00:00Z,27.8903,-94.0367,-2.0,21.27,11111222 
TABS,ioos:station:wmo:42046:1,2002-01-24T20:30:00Z,27.8903,-94.0367,-2.0,21.29,11111222 
TABS,ioos:station:wmo:42046:1,2002-01-24T21:00:00Z,27.8903,-94.0367,-2.0,21.25,11111222 
TABS,ioos:station:wmo:42046:1,2002-01-24T21:30:00Z,27.8903,-94.0367,-2.0,21.25,11111222 
TABS,ioos:station:wmo:42046:1,2002-01-24T22:00:00Z,27.8903,-94.0367,-2.0,21.2,11111222 
TABS,ioos:station:wmo:42046:1,2002-01-24T22:30:00Z,27.8903,-94.0367,-2.0,21.17,11111222 
TABS,ioos:station:wmo:42046:1,2002-01-24T23:00:00Z,27.8903,-94.0367,-2.0,21.12,11111222 
TABS,ioos:station:wmo:42046:1,2002-01-24T23:30:00Z,27.8903,-94.0367,-2.0,21.09,11111222 
TABS,ioos:station:wmo:42046:1,2002-01-25T00:00:00Z,27.8903,-94.0367,-2.0,21.07,11111222 
TABS,ioos:station:wmo:42046:1,2002-01-25T00:30:00Z,27.8903,-94.0367,-2.0,21.04,11111222 
TABS,ioos:station:wmo:42046:1,2002-01-25T01:00:00Z,27.8903,-94.0367,-2.0,20.99,11111222 
TABS,ioos:station:wmo:42046:1,2002-01-25T01:30:00Z,27.8903,-94.0367,-2.0,20.94,11111222 
TABS,ioos:station:wmo:42046:1,2002-01-25T02:00:00Z,27.8903,-94.0367,-2.0,20.91,11111222 
TABS,ioos:station:wmo:42046:1,2002-01-25T02:30:00Z,27.8903,-94.0367,-2.0,20.88,11111222 
TABS,ioos:station:wmo:42046:1,2002-01-25T03:00:00Z,27.8903,-94.0367,-2.0,20.86,11111222 
TABS,ioos:station:wmo:42046:1,2002-01-25T03:30:00Z,27.8903,-94.0367,-2.0,20.89,11111222 
TABS,ioos:station:wmo:42046:1,2002-01-25T04:00:00Z,27.8903,-94.0367,-2.0,20.9,11111222 
TABS,ioos:station:wmo:42046:1,2002-01-25T04:30:00Z,27.8903,-94.0367,-2.0,20.9,11111222 
TABS,ioos:station:wmo:42046:1,2002-01-25T05:00:00Z,27.8903,-94.0367,-2.0,20.89,11111222 
TABS,ioos:station:wmo:42046:1,2002-01-25T05:30:00Z,27.8903,-94.0367,-2.0,20.87,11111222 
TABS,ioos:station:wmo:42046:1,2002-01-25T06:00:00Z,27.8903,-94.0367,-2.0,20.85,11111222 
TABS,ioos:station:wmo:42046:1,2002-01-25T06:30:00Z,27.8903,-94.0367,-2.0,20.84,11111222 
TABS,ioos:station:wmo:42046:1,2002-01-25T07:00:00Z,27.8903,-94.0367,-2.0,20.82,11111222 
TABS,ioos:station:wmo:42046:1,2002-01-25T07:30:00Z,27.8903,-94.0367,-2.0,20.8,11111222 
TABS,ioos:station:wmo:42046:1,2002-01-25T08:00:00Z,27.8903,-94.0367,-2.0,20.77,11111222 
TABS,ioos:station:wmo:42046:1,2002-01-25T08:30:00Z,27.8903,-94.0367,-2.0,20.76,11111222 
TABS,ioos:station:wmo:42046:1,2002-01-25T09:00:00Z,27.8903,-94.0367,-2.0,20.74,11111222 
TABS,ioos:station:wmo:42046:1,2002-01-25T09:30:00Z,27.8903,-94.0367,-2.0,20.73,11111222 
TABS,ioos:station:wmo:42046:1,2002-01-25T10:00:00Z,27.8903,-94.0367,-2.0,20.71,11111222 
TABS,ioos:station:wmo:42046:1,2002-01-25T10:30:00Z,27.8903,-94.0367,-2.0,20.7,11111222 
TABS,ioos:station:wmo:42046:1,2002-01-25T11:00:00Z,27.8903,-94.0367,-2.0,20.68,11111222 
TABS,ioos:station:wmo:42046:1,2002-01-25T11:30:00Z,27.8903,-94.0367,-2.0,20.67,11111222 
TABS,ioos:station:wmo:42046:1,2002-01-25T12:30:00Z,27.8903,-94.0367,-2.0,20.64,11111222 
TABS,ioos:station:wmo:42046:1,2002-01-25T13:00:00Z,27.8903,-94.0367,-2.0,20.63,11111222 
TABS,ioos:station:wmo:42046:1,2002-01-25T13:30:00Z,27.8903,-94.0367,-2.0,20.62,11111222 
TABS,ioos:station:wmo:42046:1,2002-01-25T14:00:00Z,27.8903,-94.0367,-2.0,20.6,11111222 
TABS,ioos:station:wmo:42046:1,2002-01-25T14:30:00Z,27.8903,-94.0367,-2.0,20.59,11111222 
TABS,ioos:station:wmo:42046:1,2002-01-25T15:00:00Z,27.8903,-94.0367,-2.0,20.57,11111222 
TABS,ioos:station:wmo:42046:1,2002-01-25T15:30:00Z,27.8903,-94.0367,-2.0,20.55,11111222 
TABS,ioos:station:wmo:42046:1,2002-01-25T16:00:00Z,27.8903,-94.0367,-2.0,20.54,11111222 
TABS,ioos:station:wmo:42046:1,2002-01-25T16:30:00Z,27.8903,-94.0367,-2.0,20.51,11111222 
TABS,ioos:station:wmo:42046:1,2002-01-25T17:00:00Z,27.8903,-94.0367,-2.0,20.51,11111222 
TABS,ioos:station:wmo:42046:1,2002-01-25T17:30:00Z,27.8903,-94.0367,-2.0,20.49,11111222 
TABS,ioos:station:wmo:42046:1,2002-01-25T18:00:00Z,27.8903,-94.0367,-2.0,20.48,11111222 
TABS,ioos:station:wmo:42046:1,2002-01-25T18:30:00Z,27.8903,-94.0367,-2.0,20.48,11111222 
TABS,ioos:station:wmo:42046:1,2002-01-25T19:00:00Z,27.8903,-94.0367,-2.0,20.48,11111222 
TABS,ioos:station:wmo:42046:1,2002-01-25T19:30:00Z,27.8903,-94.0367,-2.0,20.49,11111222 
TABS,ioos:station:wmo:42046:1,2002-01-25T20:00:00Z,27.8903,-94.0367,-2.0,20.51,11111222 
TABS,ioos:station:wmo:42046:1,2002-01-25T20:30:00Z,27.8903,-94.0367,-2.0,20.5,11111222 
TABS,ioos:station:wmo:42046:1,2002-01-25T21:00:00Z,27.8903,-94.0367,-2.0,20.48,11111222 
TABS,ioos:station:wmo:42046:1,2002-01-25T21:30:00Z,27.8903,-94.0367,-2.0,20.43,11111222 
TABS,ioos:station:wmo:42046:1,2002-01-25T22:00:00Z,27.8903,-94.0367,-2.0,20.41,11111222 
TABS,ioos:station:wmo:42046:1,2002-01-25T22:30:00Z,27.8903,-94.0367,-2.0,20.39,11111222 
TABS,ioos:station:wmo:42046:1,2002-01-25T23:00:00Z,27.8903,-94.0367,-2.0,20.37,11111222 
TABS,ioos:station:wmo:42046:1,2002-01-25T23:30:00Z,27.8903,-94.0367,-2.0,20.43,11111222 
TABS,ioos:station:wmo:42046:1,2002-01-26T00:00:00Z,27.8903,-94.0367,-2.0,20.46,11111222 
TABS,ioos:station:wmo:42046:1,2002-01-26T00:30:00Z,27.8903,-94.0367,-2.0,20.47,11111222 
TABS,ioos:station:wmo:42046:1,2002-01-26T01:00:00Z,27.8903,-94.0367,-2.0,20.46,11111222 
TABS,ioos:station:wmo:42046:1,2002-01-26T01:30:00Z,27.8903,-94.0367,-2.0,20.46,11111222 
TABS,ioos:station:wmo:42046:1,2002-01-26T02:00:00Z,27.8903,-94.0367,-2.0,20.45,11111222 
TABS,ioos:station:wmo:42046:1,2002-01-26T02:30:00Z,27.8903,-94.0367,-2.0,20.45,11111222 
TABS,ioos:station:wmo:42046:1,2002-01-26T03:00:00Z,27.8903,-94.0367,-2.0,20.43,11111222 
TABS,ioos:station:wmo:42046:1,2002-01-26T03:30:00Z,27.8903,-94.0367,-2.0,20.43,11111222 
TABS,ioos:station:wmo:42046:1,2002-01-26T04:00:00Z,27.8903,-94.0367,-2.0,20.42,11111222 
TABS,ioos:station:wmo:42046:1,2002-01-26T04:30:00Z,27.8903,-94.0367,-2.0,20.41,11111222 
TABS,ioos:station:wmo:42046:1,2002-01-26T05:00:00Z,27.8903,-94.0367,-2.0,20.41,11111222 
TABS,ioos:station:wmo:42046:1,2002-01-26T05:30:00Z,27.8903,-94.0367,-2.0,20.48,11111222 
TABS,ioos:station:wmo:42046:1,2002-01-26T06:00:00Z,27.8903,-94.0367,-2.0,20.48,11111222 
TABS,ioos:station:wmo:42046:1,2002-01-26T06:30:00Z,27.8903,-94.0367,-2.0,20.47,11111222 
TABS,ioos:station:wmo:42046:1,2002-01-26T07:00:00Z,27.8903,-94.0367,-2.0,20.45,11111222 
TABS,ioos:station:wmo:42046:1,2002-01-26T07:30:00Z,27.8903,-94.0367,-2.0,20.43,11111222 
TABS,ioos:station:wmo:42046:1,2002-01-26T08:00:00Z,27.8903,-94.0367,-2.0,20.46,11111222 
TABS,ioos:station:wmo:42046:1,2002-01-26T08:30:00Z,27.8903,-94.0367,-2.0,20.46,11111222 
TABS,ioos:station:wmo:42046:1,2002-01-26T09:00:00Z,27.8903,-94.0367,-2.0,20.45,11111222 
TABS,ioos:station:wmo:42046:1,2002-01-26T09:30:00Z,27.8903,-94.0367,-2.0,20.43,11111222 
TABS,ioos:station:wmo:42046:1,2002-01-26T10:00:00Z,27.8903,-94.0367,-2.0,20.41,11111222 
TABS,ioos:station:wmo:42046:1,2002-01-26T10:30:00Z,27.8903,-94.0367,-2.0,20.36,11111222 
TABS,ioos:station:wmo:42046:1,2002-01-26T11:00:00Z,27.8903,-94.0367,-2.0,20.34,11111222 
TABS,ioos:station:wmo:42046:1,2002-01-26T11:30:00Z,27.8903,-94.0367,-2.0,20.31,11111222 
TABS,ioos:station:wmo:42046:1,2002-01-26T12:00:00Z,27.8903,-94.0367,-2.0,20.3,11111222 
TABS,ioos:station:wmo:42046:1,2002-01-26T12:30:00Z,27.8903,-94.0367,-2.0,20.29,11111222 
TABS,ioos:station:wmo:42046:1,2002-01-26T13:00:00Z,27.8903,-94.0367,-2.0,20.29,11111222 
TABS,ioos:station:wmo:42046:1,2002-01-26T13:30:00Z,27.8903,-94.0367,-2.0,20.31,11111222 
TABS,ioos:station:wmo:42046:1,2002-01-26T14:00:00Z,27.8903,-94.0367,-2.0,20.31,11111222 
TABS,ioos:station:wmo:42046:1,2002-01-26T14:30:00Z,27.8903,-94.0367,-2.0,20.32,11111222 
TABS,ioos:station:wmo:42046:1,2002-01-26T15:30:00Z,27.8903,-94.0367,-2.0,20.39,11111222 
TABS,ioos:station:wmo:42046:1,2002-01-26T16:00:00Z,27.8903,-94.0367,-2.0,20.42,11111222 
TABS,ioos:station:wmo:42046:1,2002-01-26T16:30:00Z,27.8903,-94.0367,-2.0,20.45,11111222 
TABS,ioos:station:wmo:42046:1,2002-01-26T17:00:00Z,27.8903,-94.0367,-2.0,20.47,11111222 
TABS,ioos:station:wmo:42046:1,2002-01-26T17:30:00Z,27.8903,-94.0367,-2.0,20.51,11111222 
TABS,ioos:station:wmo:42046:1,2002-01-26T18:00:00Z,27.8903,-94.0367,-2.0,20.51,11111222 
TABS,ioos:station:wmo:42046:1,2002-01-26T18:30:00Z,27.8903,-94.0367,-2.0,20.52,11111222 
TABS,ioos:station:wmo:42046:1,2002-01-26T19:00:00Z,27.8903,-94.0367,-2.0,20.52,11111222 
TABS,ioos:station:wmo:42046:1,2002-01-26T19:30:00Z,27.8903,-94.0367,-2.0,20.57,11111222 
TABS,ioos:station:wmo:42046:1,2002-01-26T20:00:00Z,27.8903,-94.0367,-2.0,20.61,11111222 
TABS,ioos:station:wmo:42046:1,2002-01-26T20:30:00Z,27.8903,-94.0367,-2.0,20.66,11111222 
TABS,ioos:station:wmo:42046:1,2002-01-26T21:00:00Z,27.8903,-94.0367,-2.0,20.69,11111222 
TABS,ioos:station:wmo:42046:1,2002-01-26T21:30:00Z,27.8903,-94.0367,-2.0,20.73,11111222 
TABS,ioos:station:wmo:42046:1,2002-01-26T22:00:00Z,27.8903,-94.0367,-2.0,20.76,11111222 
TABS,ioos:station:wmo:42046:1,2002-01-26T22:30:00Z,27.8903,-94.0367,-2.0,20.76,11111222 
TABS,ioos:station:wmo:42046:1,2002-01-26T23:00:00Z,27.8903,-94.0367,-2.0,20.77,11111222 
TABS,ioos:station:wmo:42046:1,2002-01-26T23:30:00Z,27.8903,-94.0367,-2.0,20.76,11111222 
TABS,ioos:station:wmo:42046:1,2002-01-27T00:00:00Z,27.8903,-94.0367,-2.0,20.74,11111222 
TABS,ioos:station:wmo:42046:1,2002-01-27T00:30:00Z,27.8903,-94.0367,-2.0,20.74,11111222 
TABS,ioos:station:wmo:42046:1,2002-01-27T01:00:00Z,27.8903,-94.0367,-2.0,20.73,11111222 
TABS,ioos:station:wmo:42046:1,2002-01-27T01:30:00Z,27.8903,-94.0367,-2.0,20.72,11111222 
TABS,ioos:station:wmo:42046:1,2002-01-27T02:00:00Z,27.8903,-94.0367,-2.0,20.72,11111222 
TABS,ioos:station:wmo:42046:1,2002-01-27T02:30:00Z,27.8903,-94.0367,-2.0,20.72,11111222 
TABS,ioos:station:wmo:42046:1,2002-01-27T03:00:00Z,27.8903,-94.0367,-2.0,20.74,11111222 
TABS,ioos:station:wmo:42046:1,2002-01-27T03:30:00Z,27.8903,-94.0367,-2.0,20.74,11111222 
TABS,ioos:station:wmo:42046:1,2002-01-27T04:00:00Z,27.8903,-94.0367,-2.0,20.73,11111222 
TABS,ioos:station:wmo:42046:1,2002-01-27T04:30:00Z,27.8903,-94.0367,-2.0,20.73,11111222 
TABS,ioos:station:wmo:42046:1,2002-01-27T05:00:00Z,27.8903,-94.0367,-2.0,20.72,11111222 
TABS,ioos:station:wmo:42046:1,2002-01-27T05:30:00Z,27.8903,-94.0367,-2.0,20.73,11111222 
TABS,ioos:station:wmo:42046:1,2002-01-27T06:00:00Z,27.8903,-94.0367,-2.0,20.72,11111222 
TABS,ioos:station:wmo:42046:1,2002-01-27T06:30:00Z,27.8903,-94.0367,-2.0,20.72,11111222 
TABS,ioos:station:wmo:42046:1,2002-01-27T07:00:00Z,27.8903,-94.0367,-2.0,20.69,11111222 
TABS,ioos:station:wmo:42046:1,2002-01-27T07:30:00Z,27.8903,-94.0367,-2.0,20.69,11111222 
TABS,ioos:station:wmo:42046:1,2002-01-27T08:00:00Z,27.8903,-94.0367,-2.0,20.69,11111222 
TABS,ioos:station:wmo:42046:1,2002-01-27T08:30:00Z,27.8903,-94.0367,-2.0,20.69,11111222 
TABS,ioos:station:wmo:42046:1,2002-01-27T09:00:00Z,27.8903,-94.0367,-2.0,20.69,11111222 
TABS,ioos:station:wmo:42046:1,2002-01-27T09:30:00Z,27.8903,-94.0367,-2.0,20.69,11111222 
TABS,ioos:station:wmo:42046:1,2002-01-27T10:00:00Z,27.8903,-94.0367,-2.0,20.68,11111222 
TABS,ioos:station:wmo:42046:1,2002-01-27T10:30:00Z,27.8903,-94.0367,-2.0,20.68,11111222 
TABS,ioos:station:wmo:42046:1,2002-01-27T11:00:00Z,27.8903,-94.0367,-2.0,20.67,11111222 
TABS,ioos:station:wmo:42046:1,2002-01-27T11:30:00Z,27.8903,-94.0367,-2.0,20.67,11111222 
TABS,ioos:station:wmo:42046:1,2002-01-27T12:00:00Z,27.8903,-94.0367,-2.0,20.67,11111222 
TABS,ioos:station:wmo:42046:1,2002-01-27T12:30:00Z,27.8903,-94.0367,-2.0,20.67,11111222 
TABS,ioos:station:wmo:42046:1,2002-01-27T13:00:00Z,27.8903,-94.0367,-2.0,20.66,11111222 
TABS,ioos:station:wmo:42046:1,2002-01-27T13:30:00Z,27.8903,-94.0367,-2.0,20.65,11111222 
TABS,ioos:station:wmo:42046:1,2002-01-27T14:00:00Z,27.8903,-94.0367,-2.0,20.66,11111222 
TABS,ioos:station:wmo:42046:1,2002-01-27T14:30:00Z,27.8903,-94.0367,-2.0,20.67,11111222 
TABS,ioos:station:wmo:42046:1,2002-01-27T15:00:00Z,27.8903,-94.0367,-2.0,20.68,11111222 
TABS,ioos:station:wmo:42046:1,2002-01-27T15:30:00Z,27.8903,-94.0367,-2.0,20.69,11111222 
TABS,ioos:station:wmo:42046:1,2002-01-27T16:00:00Z,27.8903,-94.0367,-2.0,20.72,11111222 
TABS,ioos:station:wmo:42046:1,2002-01-27T16:30:00Z,27.8903,-94.0367,-2.0,20.74,11111222 
TABS,ioos:station:wmo:42046:1,2002-01-27T17:00:00Z,27.8903,-94.0367,-2.0,20.76,11111222 
TABS,ioos:station:wmo:42046:1,2002-01-27T17:30:00Z,27.8903,-94.0367,-2.0,20.79,11111222 
TABS,ioos:station:wmo:42046:1,2002-01-27T18:00:00Z,27.8903,-94.0367,-2.0,20.81,11111222 
TABS,ioos:station:wmo:42046:1,2002-01-27T18:30:00Z,27.8903,-94.0367,-2.0,20.83,11111222 
TABS,ioos:station:wmo:42046:1,2002-01-27T19:00:00Z,27.8903,-94.0367,-2.0,20.87,11111222 
TABS,ioos:station:wmo:42046:1,2002-01-27T19:30:00Z,27.8903,-94.0367,-2.0,20.92,11111222 
TABS,ioos:station:wmo:42046:1,2002-01-27T20:00:00Z,27.8903,-94.0367,-2.0,20.94,11111222 
TABS,ioos:station:wmo:42046:1,2002-01-27T20:30:00Z,27.8903,-94.0367,-2.0,20.95,11111222 
TABS,ioos:station:wmo:42046:1,2002-01-27T21:00:00Z,27.8903,-94.0367,-2.0,20.94,11111222 
TABS,ioos:station:wmo:42046:1,2002-01-27T21:30:00Z,27.8903,-94.0367,-2.0,20.92,11111222 
TABS,ioos:station:wmo:42046:1,2002-01-27T22:00:00Z,27.8903,-94.0367,-2.0,20.9,11111222 
TABS,ioos:station:wmo:42046:1,2002-01-27T22:30:00Z,27.8903,-94.0367,-2.0,20.9,11111222 
TABS,ioos:station:wmo:42046:1,2002-01-27T23:00:00Z,27.8903,-94.0367,-2.0,20.92,11111222 
TABS,ioos:station:wmo:42046:1,2002-01-27T23:30:00Z,27.8903,-94.0367,-2.0,20.95,11111222 
TABS,ioos:station:wmo:42046:1,2002-01-28T00:00:00Z,27.8903,-94.0367,-2.0,20.96,11111222 
TABS,ioos:station:wmo:42046:1,2002-01-28T00:30:00Z,27.8903,-94.0367,-2.0,20.96,11111222 
TABS,ioos:station:wmo:42046:1,2002-01-28T01:00:00Z,27.8903,-94.0367,-2.0,20.96,11111222 
TABS,ioos:station:wmo:42046:1,2002-01-28T01:30:00Z,27.8903,-94.0367,-2.0,20.97,11111222 
TABS,ioos:station:wmo:42046:1,2002-01-28T02:00:00Z,27.8903,-94.0367,-2.0,20.97,11111222 
TABS,ioos:station:wmo:42046:1,2002-01-28T02:30:00Z,27.8903,-94.0367,-2.0,20.96,11111222 
TABS,ioos:station:wmo:42046:1,2002-01-28T03:00:00Z,27.8903,-94.0367,-2.0,20.96,11111222 
TABS,ioos:station:wmo:42046:1,2002-01-28T03:30:00Z,27.8903,-94.0367,-2.0,20.98,11111222 
TABS,ioos:station:wmo:42046:1,2002-01-28T04:00:00Z,27.8903,-94.0367,-2.0,20.98,11111222 
TABS,ioos:station:wmo:42046:1,2002-01-28T04:30:00Z,27.8903,-94.0367,-2.0,20.98,11111222 
TABS,ioos:station:wmo:42046:1,2002-01-28T05:00:00Z,27.8903,-94.0367,-2.0,20.98,11111222 
TABS,ioos:station:wmo:42046:1,2002-01-28T05:30:00Z,27.8903,-94.0367,-2.0,20.99,11111222 
TABS,ioos:station:wmo:42046:1,2002-01-28T06:00:00Z,27.8903,-94.0367,-2.0,20.99,11111222 
TABS,ioos:station:wmo:42046:1,2002-01-28T06:30:00Z,27.8903,-94.0367,-2.0,20.99,11111222 
TABS,ioos:station:wmo:42046:1,2002-01-28T07:00:00Z,27.8903,-94.0367,-2.0,20.99,11111222 
TABS,ioos:station:wmo:42046:1,2002-01-28T07:30:00Z,27.8903,-94.0367,-2.0,20.98,11111222 
TABS,ioos:station:wmo:42046:1,2002-01-28T08:00:00Z,27.8903,-94.0367,-2.0,20.98,11111222 
TABS,ioos:station:wmo:42046:1,2002-01-28T08:30:00Z,27.8903,-94.0367,-2.0,20.97,11111222 
TABS,ioos:station:wmo:42046:1,2002-01-28T09:00:00Z,27.8903,-94.0367,-2.0,20.96,11111222 
TABS,ioos:station:wmo:42046:1,2002-01-28T09:30:00Z,27.8903,-94.0367,-2.0,20.96,11111222 
TABS,ioos:station:wmo:42046:1,2002-01-28T10:00:00Z,27.8903,-94.0367,-2.0,20.97,11111222 
TABS,ioos:station:wmo:42046:1,2002-01-28T10:30:00Z,27.8903,-94.0367,-2.0,20.96,11111222 
TABS,ioos:station:wmo:42046:1,2002-01-28T11:00:00Z,27.8903,-94.0367,-2.0,20.95,11111222 
TABS,ioos:station:wmo:42046:1,2002-01-28T11:30:00Z,27.8903,-94.0367,-2.0,20.95,11111222 
TABS,ioos:station:wmo:42046:1,2002-01-28T12:00:00Z,27.8903,-94.0367,-2.0,20.95,11111222 
TABS,ioos:station:wmo:42046:1,2002-01-28T12:30:00Z,27.8903,-94.0367,-2.0,20.96,11111222 
TABS,ioos:station:wmo:42046:1,2002-01-28T13:00:00Z,27.8903,-94.0367,-2.0,20.96,11111222 
TABS,ioos:station:wmo:42046:1,2002-01-28T13:30:00Z,27.8903,-94.0367,-2.0,20.96,11111222 
TABS,ioos:station:wmo:42046:1,2002-01-28T14:00:00Z,27.8903,-94.0367,-2.0,20.97,11111222 
TABS,ioos:station:wmo:42046:1,2002-01-28T14:30:00Z,27.8903,-94.0367,-2.0,20.98,11111222 
TABS,ioos:station:wmo:42046:1,2002-01-28T15:30:00Z,27.8903,-94.0367,-2.0,21.01,11111222 
TABS,ioos:station:wmo:42046:1,2002-01-28T16:00:00Z,27.8903,-94.0367,-2.0,21.06,11111222 
TABS,ioos:station:wmo:42046:1,2002-01-28T16:30:00Z,27.8903,-94.0367,-2.0,21.06,11111222 
TABS,ioos:station:wmo:42046:1,2002-01-28T17:00:00Z,27.8903,-94.0367,-2.0,21.06,11111222 